Location: Chateh
(58.6667°N, 118.6000°W)
Time: 12:56:23
(UTC+00:00)

KKS-1 - Visible Passes

Search period start: 01 December 2023 00:00
Search period end: 11 December 2023 00:00
Orbit: 629 x 643 km, 98.2° (Epoch: 01 December)

Date Brightness Start Highest point End Pass type
(mag) Time Alt. Az. Time Alt. Az. Time Alt. Az.
01 Dec ? 15:07:57 10° NE 15:08:38 10° NE 15:09:18 10° NNE visible
06 Dec ? 15:21:39 10° ENE 15:23:27 12° NE 15:25:15 10° NNE visible
10 Dec ? 15:14:52 10° ENE 15:16:13 11° NE 15:17:33 10° NNE visible
